Regional & State Weather Roundups


318 
ASUS43 KMKX 150020
RWRWI 
WISCONSIN REGIONAL WEATHER ROUNDUP
NATIONAL WEATHER SERVICE MILWAUKEE/SULLIVAN WI
600 PM CST FRI DEC 14 2018
NOTE: "FAIR" INDICATES FEW OR NO CLOUDS BELOW 12,000 FEET WITH NO
SIGNIFICANT WEATHER AND/OR OBSTRUCTIONS TO VISIBILITY.
WIZ001-002-006>008-014>016-023>028-150100-
NORTHWEST WISCONSIN
  
CITY           SKY/WX    TMP DP  RH WIND       PRES   REMARKS
SUPERIOR ARPT  FAIR      33  26  77 SW7       30.16S WCI  26          
6HR MIN TEMP:  33; 6HR MAX TEMP:  41;                                
ASHLAND        FAIR      36  25  64 SW9       30.15S WCI  29          
6HR MIN TEMP:  35; 6HR MAX TEMP:  42;                                
HAYWARD        FAIR      27  22  81 CALM      30.17R                  
6HR MIN TEMP:  27; 6HR MAX TEMP:  41;                                
SIREN          FAIR      26  22  84 CALM      30.19R                  
6HR MIN TEMP:  26; 6HR MAX TEMP:  39;                                
CUMBERLAND     FAIR      27  21  80 CALM      30.17S                  
RICE LAKE      FAIR      26  26  96 CALM      30.19S                  
6HR MIN TEMP:  27; 6HR MAX TEMP:  37;                                
CHETEK         FAIR      24  22  92 CALM      30.19S                  
6HR MIN TEMP:  24; 6HR MAX TEMP:  38;                                
LADYSMITH      FAIR      23  21  91 CALM      30.19S                  
6HR MIN TEMP:  20; 6HR MAX TEMP:  36;                                
EAU CLAIRE     FAIR      25  20  81 CALM      30.18S                  
6HR MIN TEMP:  24; 6HR MAX TEMP:  36;                                
MENOMONIE      FAIR      24  19  81 CALM      30.20R                  
6HR MIN TEMP:  22; 6HR MAX TEMP:  34;                                
NEW RICHMOND   FAIR      27  20  76 CALM      30.20R                  
6HR MIN TEMP:  30; 6HR MAX TEMP:  38;                                
OSCEOLA        FAIR      28  24  84 CALM      30.22R                  
6HR MIN TEMP:  28; 6HR MAX TEMP:  40;                                
$$
 
WIZ003>005-009-010-017-018-150100-
NORTH CENTRAL WISCONSIN
  
CITY           SKY/WX    TMP DP  RH WIND       PRES   REMARKS
MANITOWISH WTR FAIR      26  25  93 CALM      30.13S                  
6HR MIN TEMP:  25; 6HR MAX TEMP:  37;                                
ARBOR VITAE    FAIR      28  24  84 CALM      30.13S                  
6HR MIN TEMP:  32; 6HR MAX TEMP:  39;                                
WOODRUFF       FAIR      28  24  84 CALM      30.13S                  
6HR MIN TEMP:  32; 6HR MAX TEMP:  39;                                
RHINELANDER    FAIR      28  18  66 W3        30.14R                  
6HR MIN TEMP:  28; 6HR MAX TEMP:  42;                                
EAGLE RIVER    FAIR      31  21  65 W9        30.11S WCI  23          
6HR MIN TEMP:  31; 6HR MAX TEMP:  40;                                
LAND O LAKES   FAIR      32  23  70 W5        30.12S WCI  27          
6HR MIN TEMP:  32; 6HR MAX TEMP:  42;                                
PHILLIPS       FAIR      25  21  85 CALM      30.15S                  
6HR MIN TEMP:  25; 6HR MAX TEMP:  36;                                
TOMAHAWK       FAIR      24  20  84 CALM      30.16R                  
6HR MIN TEMP:  24; 6HR MAX TEMP:  39;                                
MEDFORD        FAIR      26  20  76 W3        30.16S                  
6HR MIN TEMP:  24; 6HR MAX TEMP:  32;                                
MERRILL        FAIR      26  22  83 CALM      30.18R                  
6HR MIN TEMP:  26; 6HR MAX TEMP:  37;                                
$$
 
WIZ029-030-035-036-043>047-150100-
CENTRAL WISCONSIN
  
CITY           SKY/WX    TMP DP  RH WIND       PRES   REMARKS
WAUSAU         FAIR      28  21  75 CALM      30.16R                  
6HR MIN TEMP:  27; 6HR MAX TEMP:  36;                                
MOSINEE        PTCLDY    27  21  80 CALM      30.18S                  
MARSHFIELD     FAIR      28  21  75 W5        30.16S WCI  23          
6HR MIN TEMP:  27; 6HR MAX TEMP:  34;                                
STEVENS POINT  FAIR      23  23 100 CALM      30.20R                  
6HR MIN TEMP:  23; 6HR MAX TEMP:  35;                                
WAUPACA        FAIR      29  23  78 CALM      30.22R                  
6HR MIN TEMP:  28; 6HR MAX TEMP:  41;                                
WAUTOMA        FAIR      28  21  75 CALM      30.22R                  
6HR MIN TEMP:  28; 6HR MAX TEMP:  39;                                
WISC RAPIDS    FAIR      25  21  85 SW3       30.21R FOG              
6HR MIN TEMP:  24; 6HR MAX TEMP:  37;                                
CAMP DOUGLAS   FAIR      23  23  99 CALM      30.20S                  
6HR MIN TEMP:  23; 6HR MAX TEMP:  40;                                
$$
 
WIZ011>013-019>022-031-037>040-048>050-150100-
NORTHEAST WISCONSIN
  
CITY           SKY/WX    TMP DP  RH WIND       PRES   REMARKS
ANTIGO         FAIR      24  19  79 CALM      30.16R                  
6HR MIN TEMP:  24; 6HR MAX TEMP:  37;                                
SHAWANO        FAIR      34  22  62 CALM      30.18R                  
6HR MIN TEMP:  35; 6HR MAX TEMP:  43;                                
OCONTO         FAIR      31  23  70 CALM      30.17R                  
6HR MIN TEMP:  31; 6HR MAX TEMP:  40;                                
STURGEON BAY   FAIR      34  24  67 SW10      30.17R WCI  26          
6HR MIN TEMP:  33; 6HR MAX TEMP:  38;                                
GREEN BAY      FAIR      32  26  78 S6        30.19R WCI  26          
6HR MIN TEMP:  31; 6HR MAX TEMP:  37;                                
MANITOWOC      FAIR      32  26  78 W3        30.21R                  
6HR MIN TEMP:  32; 6HR MAX TEMP:  38;                                
APPLETON       PTCLDY    32  21  64 SW8       30.19R WCI  25          
CLINTONVILLE   FAIR      29  21  74 SW8       30.20R WCI  21          
6HR MIN TEMP:  30; 6HR MAX TEMP:  39;                                
OSHKOSH        FAIR      30  25  81 SW6       30.21R WCI  24          
6HR MIN TEMP:  29; 6HR MAX TEMP:  36;                                
$$
 
WIZ032>034-041-042-053>061-150100-
SOUTHWEST WISCONSIN
  
CITY           SKY/WX    TMP DP  RH WIND       PRES   REMARKS
LA CROSSE      FAIR      30  22  72 S8        30.23R WCI  22          
6HR MIN TEMP:  29; 6HR MAX TEMP:  35;                                
SPARTA         FAIR      24  22  90 CALM      30.24R                  
6HR MIN TEMP:  24; 6HR MAX TEMP:  37;                                
VIROQUA          N/A     30  22  70 SW5       30.22R WCI  25          
6HR MIN TEMP:  29; 6HR MAX TEMP:  38;                                
BOSCOBEL       HAZE      27  22  81 CALM      30.26R VSB 1            
6HR MIN TEMP:  27; 6HR MAX TEMP:  42;                                
PRAIRIE DU CHI FAIR      29  23  78 CALM      30.26R                  
6HR MIN TEMP:  29; 6HR MAX TEMP:  39;                                
PLATTEVILLE    FAIR      32  27  80 NW5       30.24S WCI  27          
6HR MIN TEMP:  32; 6HR MAX TEMP:  42;                                
$$
WIZ056-057-062-063-064-067-068-150100-
SOUTH CENTRAL WISCONSIN
  
CITY           SKY/WX    TMP DP  RH WIND       PRES   REMARKS
REEDSBURG      FAIR      28  24  84 N3        30.23S                  
6HR MIN TEMP:  26; 6HR MAX TEMP:  37;                                
BARABOO/DELLS  FAIR      28  22  77 S6        30.22S WCI  21          
6HR MIN TEMP:  27; 6HR MAX TEMP:  36;                                
LONE ROCK      FAIR      28  24  85 CALM      30.25R                  
6HR MIN TEMP:  27; 6HR MAX TEMP:  40;                                
MINERAL POINT  FAIR      37  30  75 CALM      30.23S                  
MADISON        FAIR      29  24  82 CALM      30.23F                  
6HR MIN TEMP:  29; 6HR MAX TEMP:  43;                                
MIDDLETON      FAIR      31  27  84 NW3       30.23S                  
6HR MIN TEMP:  30; 6HR MAX TEMP:  43;                                
WATERTOWN      FAIR      25  25 100 CALM      30.22S FOG              
6HR MIN TEMP:  24; 6HR MAX TEMP:  35;                                
MONROE         FAIR      32  30  94 MISG      30.22R                  
6HR MIN TEMP:  31; 6HR MAX TEMP:  40;                                
JANESVILLE     FOG       30  30 100 CALM      30.22S VSB 1/8          
$$
 
WIZ051-052-058>065-066-070>072-150100-
SOUTHEAST WISCONSIN
  
CITY           SKY/WX    TMP DP  RH WIND       PRES   REMARKS
MILWAUKEE      FAIR      34  27  75 W3        30.21S                  
6HR MIN TEMP:  34; 6HR MAX TEMP:  43;                                
WAUKESHA       CLEAR     27  27 100 CALM      30.22F                  
MILWAUKEE/TIMM CLEAR     30  25  80 W5        30.24R WCI  25          
RACINE         FAIR      31  28  89 W5        30.23R FOG     WCI  26  
6HR MIN TEMP:  31; 6HR MAX TEMP:  46;                                
KENOSHA        FOG       30  30 100 NW6       30.21R VSB 1/4 WCI  24  
6HR MIN TEMP:  30; 6HR MAX TEMP:  46;                                
FOND DU LAC    FAIR      31  26  82 SW5       30.22R WCI  26          
6HR MIN TEMP:  29; 6HR MAX TEMP:  35;                                
SHEBOYGAN      FAIR      33  25  72 W8        30.20S WCI  26          
6HR MIN TEMP:  31; 6HR MAX TEMP:  40;                                
WEST BEND      FAIR      32  28  86 CALM      30.20F                  
JUNEAU         FAIR      31  28  90 CALM      30.23S                  
6HR MIN TEMP:  28; 6HR MAX TEMP:  35;                                
$$
LSZ147-162-150100-
LAKE SUPERIOR
  
STATION/POSITION TIME  TEMP    WIND        PRES    WAVE
                       AIR SEA DIR/SP/G            HT/PER
                 (UTC) (F)     (DEG/KT/KT) (MB)    (FT/S)
DEVILS ISLAND    0000   39     240/ 13/ 13 1021.0R
SAXON HARBOR     2340   39     200/  9/ 13 1020.0R
$$
 
LMZ867-665-643>646-150100-
LAKE MICHIGAN
  
STATION/POSITION TIME  TEMP    WIND        PRES    WAVE
                       AIR SEA DIR/SP/G            HT/PER